Time,TemperatureF,DewpointF,PressureIn,WindDirection,WindDirectionDegrees,WindSpeedMPH,WindSpeedGustMPH,Humidity,HourlyPrecipIn,Conditions,Clouds,dailyrainin,SoftwareType,DateUTC
2013-10-14 00:04:00,32.5,30.2,29.92,NNW,338,4.0,5.0,91,0.00,,---,0.00,VWS V14.01,2013-10-14 06:04:00,
2013-10-14 00:09:00,32.6,30.5,29.92,NNE,26,8.0,10.0,92,0.00,,---,0.00,VWS V14.01,2013-10-14 06:09:00,
2013-10-14 00:14:00,33.2,31.4,29.92,North,10,8.0,9.0,93,0.00,,---,0.00,VWS V14.01,2013-10-14 06:14:00,
2013-10-14 00:19:00,33.9,32.1,29.92,North,5,7.0,8.0,93,0.00,,---,0.00,VWS V14.01,2013-10-14 06:19:00,
2013-10-14 00:24:00,34.6,32.5,29.91,North,355,7.0,9.0,92,0.00,,---,0.00,VWS V14.01,2013-10-14 06:24:00,
2013-10-14 00:29:00,34.9,32.5,29.91,NNW,348,6.0,8.0,91,0.00,,---,0.00,VWS V14.01,2013-10-14 06:29:00,
2013-10-14 00:34:00,35.2,32.8,29.92,NNW,339,0.0,4.0,91,0.00,,---,0.00,VWS V14.01,2013-10-14 06:34:00,
2013-10-14 00:39:00,35.5,32.9,29.92,NNW,333,3.0,3.0,90,0.00,,---,0.00,VWS V14.01,2013-10-14 06:39:00,
2013-10-14 00:44:00,35.9,33.0,29.91,SW,223,0.0,2.0,89,0.00,,---,0.00,VWS V14.01,2013-10-14 06:44:00,
2013-10-14 00:49:00,36.3,33.4,29.92,West,269,11.0,14.0,89,0.00,,---,0.00,VWS V14.01,2013-10-14 06:49:00,
2013-10-14 00:54:00,36.6,33.7,29.92,West,271,4.0,7.0,89,0.00,,---,0.00,VWS V14.01,2013-10-14 06:54:00,
2013-10-14 00:59:00,36.6,33.4,29.93,WSW,252,3.0,3.0,88,0.00,,---,0.00,VWS V14.01,2013-10-14 06:59:00,
2013-10-14 01:04:00,36.7,32.9,29.94,SW,225,9.0,10.0,86,0.00,,---,0.00,VWS V14.01,2013-10-14 07:04:00,
2013-10-14 01:09:00,36.4,32.6,29.92,SSW,213,0.0,0.0,86,0.00,,---,0.00,VWS V14.01,2013-10-14 07:09:00,
2013-10-14 01:14:00,36.1,32.3,29.93,North,355,6.0,9.0,86,0.00,,---,0.00,VWS V14.01,2013-10-14 07:14:00,
2013-10-14 01:19:00,35.8,32.3,29.93,NNE,20,4.0,5.0,87,0.01,,---,0.01,VWS V14.01,2013-10-14 07:19:00,
2013-10-14 01:24:00,35.7,32.2,29.92,NNE,19,3.0,3.0,87,0.01,,---,0.01,VWS V14.01,2013-10-14 07:24:00,
2013-10-14 01:29:00,35.8,32.3,29.92,NNE,20,2.0,3.0,87,0.01,,---,0.01,VWS V14.01,2013-10-14 07:29:00,
2013-10-14 01:34:00,35.9,32.1,29.92,NE,40,3.0,4.0,86,0.01,,---,0.01,VWS V14.01,2013-10-14 07:34:00,
2013-10-14 01:39:00,35.9,32.1,29.92,NE,40,0.0,1.0,86,0.01,,---,0.01,VWS V14.01,2013-10-14 07:39:00,
2013-10-14 01:44:00,35.9,32.1,29.92,NE,42,3.0,3.0,86,0.01,,---,0.01,VWS V14.01,2013-10-14 07:44:00,
2013-10-14 01:49:00,35.9,32.1,29.93,WSW,257,22.0,27.0,86,0.01,,---,0.01,VWS V14.01,2013-10-14 07:49:00,
2013-10-14 01:54:00,36.2,31.5,29.92,SW,236,8.0,8.0,83,0.04,,---,0.04,VWS V14.01,2013-10-14 07:54:00,
2013-10-14 02:00:00,36.2,31.5,29.92,SW,217,4.0,6.0,83,0.04,,---,0.04,VWS V14.01,2013-10-14 08:00:00,
2013-10-14 02:05:00,36.2,31.5,29.93,SW,217,0.0,0.0,83,0.04,,---,0.04,VWS V14.01,2013-10-14 08:05:00,
2013-10-14 02:10:00,36.1,31.1,29.92,West,269,3.0,3.0,82,0.04,,---,0.04,VWS V14.01,2013-10-14 08:10:00,
2013-10-14 02:15:00,36.1,31.5,29.92,SSE,150,0.0,3.0,83,0.04,,---,0.04,VWS V14.01,2013-10-14 08:15:00,
2013-10-14 02:20:00,36.1,31.5,29.92,South,184,0.0,0.0,83,0.03,,---,0.04,VWS V14.01,2013-10-14 08:20:00,
2013-10-14 02:25:00,36.1,31.1,29.91,ENE,57,3.0,3.0,82,0.03,,---,0.04,VWS V14.01,2013-10-14 08:25:00,
2013-10-14 02:30:00,36.2,31.2,29.91,ENE,74,3.0,3.0,82,0.03,,---,0.04,VWS V14.01,2013-10-14 08:30:00,
2013-10-14 02:35:00,36.1,31.1,29.91,South,175,10.0,10.0,82,0.03,,---,0.04,VWS V14.01,2013-10-14 08:35:00,
2013-10-14 02:40:00,36.1,31.1,29.91,SSE,155,5.0,5.0,82,0.03,,---,0.04,VWS V14.01,2013-10-14 08:40:00,
2013-10-14 02:45:00,36.1,31.1,29.90,SSE,155,0.0,2.0,82,0.03,,---,0.04,VWS V14.01,2013-10-14 08:45:00,
2013-10-14 02:50:00,36.0,31.0,29.90,SSE,155,0.0,0.0,82,0.03,,---,0.04,VWS V14.01,2013-10-14 08:50:00,
2013-10-14 02:55:00,35.9,31.0,29.90,SSE,155,0.0,0.0,82,0.00,,---,0.04,VWS V14.01,2013-10-14 08:55:00,
2013-10-14 03:00:00,35.8,30.5,29.89,SSE,155,3.0,3.0,81,0.00,,---,0.04,VWS V14.01,2013-10-14 09:00:00,
2013-10-14 03:05:00,35.7,30.1,29.89,SW,231,5.0,6.0,80,0.00,,---,0.04,VWS V14.01,2013-10-14 09:05:00,
2013-10-14 03:10:00,35.9,29.7,29.88,SW,232,2.0,3.0,78,0.00,,---,0.04,VWS V14.01,2013-10-14 09:10:00,
2013-10-14 03:15:00,36.1,29.6,29.88,SW,231,4.0,4.0,77,0.00,,---,0.04,VWS V14.01,2013-10-14 09:15:00,
2013-10-14 03:20:00,36.2,29.7,29.87,SW,221,2.0,3.0,77,0.00,,---,0.04,VWS V14.01,2013-10-14 09:20:00,
2013-10-14 03:25:00,36.2,29.0,29.87,SE,130,10.0,10.0,75,0.00,,---,0.04,VWS V14.01,2013-10-14 09:25:00,
2013-10-14 03:30:00,36.4,28.2,29.86,SSE,159,5.0,10.0,72,0.01,,---,0.05,VWS V14.01,2013-10-14 09:30:00,
2013-10-14 03:35:00,36.8,28.3,29.86,SW,215,0.0,2.0,71,0.01,,---,0.05,VWS V14.01,2013-10-14 09:35:00,
2013-10-14 03:40:00,36.8,29.3,29.86,SW,215,3.0,6.0,74,0.01,,---,0.05,VWS V14.01,2013-10-14 09:40:00,
2013-10-14 03:45:00,36.6,28.4,29.86,SSW,209,6.0,7.0,72,0.01,,---,0.05,VWS V14.01,2013-10-14 09:45:00,
2013-10-14 03:50:00,36.6,28.1,29.85,SSE,159,3.0,5.0,71,0.01,,---,0.05,VWS V14.01,2013-10-14 09:50:00,
2013-10-14 03:55:00,36.6,29.1,29.85,SSE,159,0.0,0.0,74,0.01,,---,0.05,VWS V14.01,2013-10-14 09:55:00,
2013-10-14 04:00:00,36.4,29.2,29.85,SSE,160,3.0,3.0,75,0.01,,---,0.05,VWS V14.01,2013-10-14 10:00:00,
2013-10-14 04:05:00,36.2,29.7,29.85,SSE,160,0.0,3.0,77,0.01,,---,0.05,VWS V14.01,2013-10-14 10:05:00,
2013-10-14 04:10:00,35.9,29.7,29.84,SSE,160,0.0,1.0,78,0.01,,---,0.05,VWS V14.01,2013-10-14 10:10:00,
2013-10-14 04:15:00,35.2,29.0,29.83,SSE,160,0.0,0.0,78,0.01,,---,0.05,VWS V14.01,2013-10-14 10:15:00,
2013-10-14 04:20:00,34.7,28.9,29.83,SSE,160,0.0,0.0,79,0.01,,---,0.05,VWS V14.01,2013-10-14 10:20:00,
2013-10-14 04:25:00,34.4,29.2,29.83,SSE,160,3.0,3.0,81,0.01,,---,0.05,VWS V14.01,2013-10-14 10:25:00,
2013-10-14 04:30:00,34.2,29.3,29.83,SSE,163,0.0,0.0,82,0.00,,---,0.05,VWS V14.01,2013-10-14 10:30:00,
2013-10-14 04:35:00,34.1,29.2,29.83,SSE,163,0.0,0.0,82,0.00,,---,0.05,VWS V14.01,2013-10-14 10:35:00,
2013-10-14 04:40:00,34.0,29.1,29.83,SW,226,4.0,5.0,82,0.00,,---,0.05,VWS V14.01,2013-10-14 10:40:00,
2013-10-14 04:45:00,34.2,28.4,29.84,SW,222,12.0,12.0,79,0.00,,---,0.05,VWS V14.01,2013-10-14 10:45:00,
2013-10-14 04:50:00,34.0,29.7,29.85,WSW,249,21.0,23.0,84,0.03,,---,0.08,VWS V14.01,2013-10-14 10:50:00,
2013-10-14 04:55:00,33.4,30.0,29.85,SSW,205,21.0,21.0,87,0.03,,---,0.08,VWS V14.01,2013-10-14 10:55:00,
2013-10-14 05:00:00,33.5,29.8,29.85,SW,227,9.0,13.0,86,0.03,,---,0.08,VWS V14.01,2013-10-14 11:00:00,
2013-10-14 05:05:00,33.2,29.8,29.85,SSW,212,7.0,9.0,87,0.03,,---,0.08,VWS V14.01,2013-10-14 11:05:00,
2013-10-14 05:10:00,32.9,29.7,29.85,West,265,9.0,9.0,88,0.03,,---,0.08,VWS V14.01,2013-10-14 11:10:00,
2013-10-14 05:15:00,32.7,29.5,29.86,WNW,289,6.0,7.0,88,0.03,,---,0.08,VWS V14.01,2013-10-14 11:15:00,
2013-10-14 05:20:00,32.5,29.9,29.86,WNW,288,5.0,5.0,90,0.03,,---,0.08,VWS V14.01,2013-10-14 11:20:00,
2013-10-14 05:25:00,32.0,29.4,29.86,WNW,284,10.0,10.0,90,0.03,,---,0.08,VWS V14.01,2013-10-14 11:25:00,
2013-10-14 05:30:00,31.5,29.2,29.86,West,280,6.0,8.0,91,0.03,,---,0.08,VWS V14.01,2013-10-14 11:30:00,
2013-10-14 05:35:00,31.1,28.8,29.87,West,280,1.0,2.0,91,0.03,,---,0.08,VWS V14.01,2013-10-14 11:35:00,
2013-10-14 05:40:00,31.0,29.0,29.87,West,280,0.0,0.0,92,0.03,,---,0.08,VWS V14.01,2013-10-14 11:40:00,
2013-10-14 05:45:00,30.9,28.9,29.87,West,280,0.0,0.0,92,0.03,,---,0.08,VWS V14.01,2013-10-14 11:45:00,
2013-10-14 05:50:00,30.9,29.1,29.87,West,280,3.0,3.0,93,0.01,,---,0.08,VWS V14.01,2013-10-14 11:50:00,
2013-10-14 05:55:00,30.8,29.0,29.88,West,280,2.0,2.0,93,0.00,,---,0.08,VWS V14.01,2013-10-14 11:55:00,
2013-10-14 06:00:00,30.6,28.8,29.89,West,280,0.0,1.0,93,0.00,,---,0.08,VWS V14.01,2013-10-14 12:00:00,
2013-10-14 06:05:00,30.4,28.6,29.88,West,280,5.0,5.0,93,0.00,,---,0.08,VWS V14.01,2013-10-14 12:05:00,
2013-10-14 06:10:00,30.3,28.5,29.88,West,280,3.0,5.0,93,0.00,,---,0.08,VWS V14.01,2013-10-14 12:10:00,
2013-10-14 06:16:00,30.1,28.3,29.88,West,280,3.0,4.0,93,0.00,,---,0.08,VWS V14.01,2013-10-14 12:16:00,
2013-10-14 06:21:00,30.0,28.2,29.87,West,280,5.0,5.0,93,0.00,,---,0.08,VWS V14.01,2013-10-14 12:21:00,
2013-10-14 06:26:00,29.8,28.0,29.87,West,280,0.0,0.0,93,0.00,,---,0.08,VWS V14.01,2013-10-14 12:26:00,
2013-10-14 06:31:00,29.8,28.0,29.87,West,280,4.0,4.0,93,0.00,,---,0.08,VWS V14.01,2013-10-14 12:31:00,
2013-10-14 06:36:00,29.8,27.8,29.87,West,280,3.0,3.0,92,0.00,,---,0.08,VWS V14.01,2013-10-14 12:36:00,
2013-10-14 06:41:00,29.9,27.6,29.87,West,280,0.0,0.0,91,0.00,,---,0.08,VWS V14.01,2013-10-14 12:41:00,
2013-10-14 06:46:00,29.9,27.6,29.87,West,280,2.0,3.0,91,0.00,,---,0.08,VWS V14.01,2013-10-14 12:46:00,
2013-10-14 06:51:00,29.9,27.6,29.87,West,280,0.0,0.0,91,0.00,,---,0.08,VWS V14.01,2013-10-14 12:51:00,
2013-10-14 06:56:00,29.9,27.3,29.87,West,280,3.0,3.0,90,0.00,,---,0.08,VWS V14.01,2013-10-14 12:56:00,
2013-10-14 07:01:00,30.0,27.4,29.88,West,280,0.0,0.0,90,0.00,,---,0.08,VWS V14.01,2013-10-14 13:01:00,
2013-10-14 07:06:00,30.1,27.5,29.88,West,280,0.0,0.0,90,0.00,,---,0.08,VWS V14.01,2013-10-14 13:06:00,
2013-10-14 07:11:00,30.1,27.5,29.88,West,280,0.0,0.0,90,0.00,,---,0.08,VWS V14.01,2013-10-14 13:11:00,
2013-10-14 07:16:00,30.1,27.5,29.88,West,280,0.0,0.0,90,0.00,,---,0.08,VWS V14.01,2013-10-14 13:16:00,
2013-10-14 07:21:00,30.1,27.5,29.89,West,280,4.0,4.0,90,0.00,,---,0.08,VWS V14.01,2013-10-14 13:21:00,
2013-10-14 07:26:00,30.1,27.5,29.89,West,280,3.0,4.0,90,0.00,,---,0.08,VWS V14.01,2013-10-14 13:26:00,
2013-10-14 07:31:00,30.0,27.7,29.88,West,280,7.0,7.0,91,0.00,,---,0.08,VWS V14.01,2013-10-14 13:31:00,
2013-10-14 07:36:00,29.9,27.6,29.88,West,280,4.0,5.0,91,0.00,,---,0.08,VWS V14.01,2013-10-14 13:36:00,
2013-10-14 07:41:00,29.9,27.3,29.88,West,280,4.0,4.0,90,0.00,,---,0.08,VWS V14.01,2013-10-14 13:41:00,
2013-10-14 07:46:00,30.0,27.4,29.88,West,280,4.0,4.0,90,0.00,,---,0.08,VWS V14.01,2013-10-14 13:46:00,
2013-10-14 07:51:00,30.1,27.3,29.88,West,280,3.0,5.0,89,0.00,,---,0.08,VWS V14.01,2013-10-14 13:51:00,
2013-10-14 07:56:00,30.3,27.2,29.88,West,280,5.0,6.0,88,0.00,,---,0.08,VWS V14.01,2013-10-14 13:56:00,
2013-10-14 08:01:00,30.4,27.3,29.88,West,280,7.0,7.0,88,0.00,,---,0.08,VWS V14.01,2013-10-14 14:01:00,
2013-10-14 08:06:00,30.6,27.2,29.88,West,280,5.0,8.0,87,0.00,,---,0.08,VWS V14.01,2013-10-14 14:06:00,
2013-10-14 08:11:00,30.7,27.0,29.89,West,280,5.0,5.0,86,0.00,,---,0.08,VWS V14.01,2013-10-14 14:11:00,
2013-10-14 08:16:00,30.8,27.4,29.89,West,280,4.0,6.0,87,0.00,,---,0.08,VWS V14.01,2013-10-14 14:16:00,
2013-10-14 08:21:00,30.8,27.7,29.89,West,280,0.0,0.0,88,0.00,,---,0.08,VWS V14.01,2013-10-14 14:21:00,
2013-10-14 08:26:00,30.8,27.7,29.89,West,280,0.0,0.0,88,0.00,,---,0.08,VWS V14.01,2013-10-14 14:26:00,
2013-10-14 08:31:00,30.8,28.0,29.89,West,280,2.0,2.0,89,0.00,,---,0.08,VWS V14.01,2013-10-14 14:31:00,
2013-10-14 08:36:00,30.7,27.9,29.89,West,280,0.0,0.0,89,0.00,,---,0.08,VWS V14.01,2013-10-14 14:36:00,
2013-10-14 08:41:00,30.8,28.0,29.89,West,280,0.0,0.0,89,0.00,,---,0.08,VWS V14.01,2013-10-14 14:41:00,
2013-10-14 08:46:00,31.6,27.6,29.89,West,280,0.0,0.0,85,0.00,,---,0.08,VWS V14.01,2013-10-14 14:46:00,
2013-10-14 08:51:00,32.2,27.9,29.89,WNW,283,2.0,3.0,84,0.00,,---,0.08,VWS V14.01,2013-10-14 14:51:00,
2013-10-14 08:56:00,31.5,27.2,29.90,WNW,285,4.0,5.0,84,0.00,,---,0.08,VWS V14.01,2013-10-14 14:56:00,
2013-10-14 09:01:00,31.6,27.6,29.89,North,355,6.0,6.0,85,0.00,,---,0.08,VWS V14.01,2013-10-14 15:01:00,
2013-10-14 09:06:00,31.2,27.5,29.89,North,5,5.0,6.0,86,0.00,,---,0.08,VWS V14.01,2013-10-14 15:06:00,
2013-10-14 09:11:00,31.2,27.2,29.90,North,5,7.0,7.0,85,0.00,,---,0.08,VWS V14.01,2013-10-14 15:11:00,
2013-10-14 09:16:00,31.4,27.4,29.89,NNE,13,4.0,6.0,85,0.00,,---,0.08,VWS V14.01,2013-10-14 15:16:00,
2013-10-14 09:21:00,31.4,27.7,29.89,NNE,13,6.0,7.0,86,0.00,,---,0.08,VWS V14.01,2013-10-14 15:21:00,
2013-10-14 09:26:00,31.0,27.0,29.89,North,11,2.0,4.0,85,0.00,,---,0.08,VWS V14.01,2013-10-14 15:26:00,
2013-10-14 09:31:00,31.4,28.0,29.90,North,11,3.0,5.0,87,0.00,,---,0.08,VWS V14.01,2013-10-14 15:31:00,
2013-10-14 09:36:00,31.2,27.2,29.90,North,11,3.0,3.0,85,0.00,,---,0.08,VWS V14.01,2013-10-14 15:36:00,
2013-10-14 09:41:00,30.8,27.7,29.90,North,9,5.0,7.0,88,0.00,,---,0.08,VWS V14.01,2013-10-14 15:41:00,
2013-10-14 09:46:00,30.4,27.8,29.90,North,9,9.0,10.0,90,0.00,,---,0.08,VWS V14.01,2013-10-14 15:46:00,
2013-10-14 09:51:00,30.1,27.5,29.90,North,9,7.0,8.0,90,0.00,,---,0.08,VWS V14.01,2013-10-14 15:51:00,
2013-10-14 09:56:00,29.9,27.6,29.90,North,9,7.0,7.0,91,0.00,,---,0.08,VWS V14.01,2013-10-14 15:56:00,
2013-10-14 10:01:00,29.8,27.5,29.90,North,9,0.0,2.0,91,0.00,,---,0.08,VWS V14.01,2013-10-14 16:01:00,
2013-10-14 10:07:00,30.0,27.7,29.91,North,9,1.0,1.0,91,0.00,,---,0.08,VWS V14.01,2013-10-14 16:07:00,
2013-10-14 10:12:00,30.2,27.9,29.91,North,9,1.0,2.0,91,0.00,,---,0.08,VWS V14.01,2013-10-14 16:12:00,
2013-10-14 10:17:00,30.4,27.8,29.91,North,9,0.0,0.0,90,0.00,,---,0.08,VWS V14.01,2013-10-14 16:17:00,
2013-10-14 10:22:00,30.6,28.0,29.92,North,9,0.0,0.0,90,0.00,,---,0.08,VWS V14.01,2013-10-14 16:22:00,
2013-10-14 10:27:00,30.6,28.0,29.92,North,9,0.0,0.0,90,0.00,,---,0.08,VWS V14.01,2013-10-14 16:27:00,
2013-10-14 10:32:00,30.5,28.2,29.92,North,9,0.0,0.0,91,0.00,,---,0.08,VWS V14.01,2013-10-14 16:32:00,
2013-10-14 10:37:00,30.7,28.4,29.92,North,9,1.0,2.0,91,0.00,,---,0.08,VWS V14.01,2013-10-14 16:37:00,
2013-10-14 10:42:00,30.8,28.5,29.92,North,9,0.0,0.0,91,0.00,,---,0.08,VWS V14.01,2013-10-14 16:42:00,
2013-10-14 10:47:00,31.7,28.6,29.92,North,9,0.0,0.0,88,0.00,,---,0.08,VWS V14.01,2013-10-14 16:47:00,
2013-10-14 10:52:00,33.3,29.3,29.92,North,9,0.0,0.0,85,0.00,,---,0.08,VWS V14.01,2013-10-14 16:52:00,
2013-10-14 10:57:00,33.7,28.8,29.92,North,9,0.0,0.0,82,0.00,,---,0.08,VWS V14.01,2013-10-14 16:57:00,
2013-10-14 11:02:00,34.5,29.0,29.92,North,9,1.0,1.0,80,0.00,,---,0.08,VWS V14.01,2013-10-14 17:02:00,
2013-10-14 11:07:00,34.1,27.7,29.92,North,9,0.0,0.0,77,0.00,,---,0.08,VWS V14.01,2013-10-14 17:07:00,
2013-10-14 11:12:00,33.9,27.5,29.92,NNE,12,0.0,2.0,77,0.00,,---,0.08,VWS V14.01,2013-10-14 17:12:00,
2013-10-14 11:17:00,34.3,27.5,29.92,WSW,240,0.0,0.0,76,0.00,,---,0.08,VWS V14.01,2013-10-14 17:17:00,
2013-10-14 11:22:00,34.0,28.2,29.92,WSW,239,2.0,4.0,79,0.00,,---,0.08,VWS V14.01,2013-10-14 17:22:00,
2013-10-14 11:27:00,33.6,27.8,29.92,SW,217,7.0,11.0,79,0.00,,---,0.08,VWS V14.01,2013-10-14 17:27:00,
2013-10-14 11:32:00,32.6,28.3,29.93,SSW,196,7.0,7.0,84,0.00,,---,0.08,VWS V14.01,2013-10-14 17:32:00,
2013-10-14 11:37:00,32.3,28.3,29.92,WSW,237,7.0,9.0,85,0.00,,---,0.08,VWS V14.01,2013-10-14 17:37:00,
2013-10-14 11:42:00,32.2,27.9,29.92,WSW,252,5.0,7.0,84,0.00,,---,0.08,VWS V14.01,2013-10-14 17:42:00,
2013-10-14 11:47:00,32.1,27.5,29.92,SW,231,0.0,0.0,83,0.00,,---,0.08,VWS V14.01,2013-10-14 17:47:00,
2013-10-14 11:52:00,32.9,28.6,29.92,SW,229,5.0,5.0,84,0.00,,---,0.08,VWS V14.01,2013-10-14 17:52:00,
2013-10-14 11:57:00,32.5,28.2,29.92,SSW,194,7.0,8.0,84,0.00,,---,0.08,VWS V14.01,2013-10-14 17:57:00,
2013-10-14 12:02:00,32.0,28.6,29.92,SW,227,3.0,4.0,87,0.00,,---,0.08,VWS V14.01,2013-10-14 18:02:00,
2013-10-14 12:07:00,31.5,28.6,29.93,WSW,237,0.0,2.0,89,0.00,,---,0.08,VWS V14.01,2013-10-14 18:07:00,
2013-10-14 12:12:00,31.9,29.3,29.93,WSW,237,2.0,4.0,90,0.00,,---,0.08,VWS V14.01,2013-10-14 18:12:00,
2013-10-14 12:17:00,31.5,29.2,29.93,NNW,347,6.0,9.0,91,0.00,,---,0.08,VWS V14.01,2013-10-14 18:17:00,
2013-10-14 12:22:00,32.4,30.3,29.93,North,355,9.0,9.0,92,0.00,,---,0.08,VWS V14.01,2013-10-14 18:22:00,
2013-10-14 12:27:00,32.9,30.3,29.93,NNW,348,8.0,9.0,90,0.00,,---,0.08,VWS V14.01,2013-10-14 18:27:00,
2013-10-14 12:32:00,33.5,30.3,29.93,NNW,346,8.0,8.0,88,0.00,,---,0.08,VWS V14.01,2013-10-14 18:32:00,
2013-10-14 12:37:00,34.1,31.2,29.93,NNW,328,0.0,3.0,89,0.00,,---,0.08,VWS V14.01,2013-10-14 18:37:00,
2013-10-14 12:42:00,34.5,31.6,29.93,NNW,327,0.0,3.0,89,0.00,,---,0.08,VWS V14.01,2013-10-14 18:42:00,
2013-10-14 12:47:00,34.8,29.6,29.93,WNW,298,11.0,11.0,81,0.01,,---,0.09,VWS V14.01,2013-10-14 18:47:00,
2013-10-14 12:52:00,34.8,29.6,29.93,West,274,9.0,9.0,81,0.01,,---,0.09,VWS V14.01,2013-10-14 18:52:00,
2013-10-14 12:57:00,34.6,29.7,29.93,WNW,291,8.0,10.0,82,0.01,,---,0.09,VWS V14.01,2013-10-14 18:57:00,
2013-10-14 13:02:00,35.1,28.9,29.93,WNW,288,9.0,9.0,78,0.01,,---,0.09,VWS V14.01,2013-10-14 19:02:00,
2013-10-14 13:07:00,36.1,29.6,29.93,NW,315,7.0,7.0,77,0.01,,---,0.09,VWS V14.01,2013-10-14 19:07:00,
2013-10-14 13:12:00,36.4,29.2,29.93,WNW,288,8.0,8.0,75,0.01,,---,0.09,VWS V14.01,2013-10-14 19:12:00,
2013-10-14 13:17:00,36.4,28.2,29.94,WNW,288,6.0,10.0,72,0.01,,---,0.09,VWS V14.01,2013-10-14 19:17:00,
2013-10-14 13:22:00,35.6,28.5,29.93,WNW,294,13.0,14.0,75,0.03,,---,0.11,VWS V14.01,2013-10-14 19:22:00,
2013-10-14 13:27:00,35.2,27.8,29.94,NW,304,8.0,9.0,74,0.03,,---,0.11,VWS V14.01,2013-10-14 19:27:00,
2013-10-14 13:32:00,35.3,27.2,29.94,West,275,6.0,8.0,72,0.03,,---,0.11,VWS V14.01,2013-10-14 19:32:00,
2013-10-14 13:37:00,35.3,28.8,29.94,NW,320,7.0,7.0,77,0.03,,---,0.11,VWS V14.01,2013-10-14 19:37:00,
2013-10-14 13:42:00,35.2,27.4,29.94,WNW,296,8.0,9.0,73,0.03,,---,0.11,VWS V14.01,2013-10-14 19:42:00,
2013-10-14 13:47:00,35.1,28.0,29.94,NW,321,5.0,5.0,75,0.02,,---,0.11,VWS V14.01,2013-10-14 19:47:00,
2013-10-14 13:52:00,35.2,27.8,29.94,NW,317,11.0,13.0,74,0.02,,---,0.11,VWS V14.01,2013-10-14 19:52:00,
2013-10-14 13:57:00,34.0,27.2,29.94,North,5,8.0,10.0,76,0.02,,---,0.11,VWS V14.01,2013-10-14 19:57:00,
2013-10-14 14:02:00,34.1,28.6,29.94,NNW,343,4.0,8.0,80,0.02,,---,0.11,VWS V14.01,2013-10-14 20:02:00,
2013-10-14 14:07:00,34.9,27.1,29.94,NW,325,4.0,7.0,73,0.02,,---,0.11,VWS V14.01,2013-10-14 20:07:00,
2013-10-14 14:13:00,35.2,28.1,29.95,NW,321,3.0,5.0,75,0.02,,---,0.11,VWS V14.01,2013-10-14 20:13:00,
2013-10-14 14:18:00,35.1,27.3,29.95,NNW,331,6.0,7.0,73,0.02,,---,0.11,VWS V14.01,2013-10-14 20:18:00,
2013-10-14 14:23:00,35.7,27.9,29.95,NNW,338,9.0,11.0,73,0.00,,---,0.11,VWS V14.01,2013-10-14 20:23:00,
2013-10-14 14:28:00,36.0,26.1,29.95,West,275,8.0,11.0,67,0.00,,---,0.11,VWS V14.01,2013-10-14 20:28:00,
2013-10-14 14:33:00,35.9,25.3,29.95,North,351,10.0,10.0,65,0.00,,---,0.11,VWS V14.01,2013-10-14 20:33:00,
2013-10-14 14:38:00,36.1,25.9,29.95,North,355,4.0,10.0,66,0.00,,---,0.11,VWS V14.01,2013-10-14 20:38:00,
2013-10-14 14:43:00,35.9,26.4,29.95,North,360,3.0,5.0,68,0.00,,---,0.11,VWS V14.01,2013-10-14 20:43:00,
2013-10-14 14:48:00,36.3,27.1,29.95,North,9,7.0,8.0,69,0.00,,---,0.11,VWS V14.01,2013-10-14 20:48:00,
2013-10-14 14:53:00,36.3,26.4,29.95,North,349,5.0,7.0,67,0.00,,---,0.11,VWS V14.01,2013-10-14 20:53:00,
2013-10-14 14:58:00,36.9,26.2,29.95,NW,322,7.0,8.0,65,0.00,,---,0.11,VWS V14.01,2013-10-14 20:58:00,
2013-10-14 15:02:00,37.7,26.6,29.95,WNW,299,6.0,8.0,64,0.00,,---,0.11,VWS V14.01,2013-10-14 21:02:00,
2013-10-14 15:07:00,37.9,25.7,29.95,North,350,10.0,11.0,61,0.00,,---,0.11,VWS V14.01,2013-10-14 21:07:00,
2013-10-14 15:12:00,37.3,24.7,29.95,NW,314,6.0,11.0,60,0.00,,---,0.11,VWS V14.01,2013-10-14 21:12:00,
2013-10-14 15:17:00,38.5,28.1,29.96,WSW,238,4.0,8.0,66,0.00,,---,0.11,VWS V14.01,2013-10-14 21:17:00,
2013-10-14 15:22:00,38.6,28.2,29.96,SW,236,5.0,5.0,66,0.00,,---,0.11,VWS V14.01,2013-10-14 21:22:00,
2013-10-14 15:27:00,38.7,26.4,29.97,West,278,3.0,3.0,61,0.00,,---,0.11,VWS V14.01,2013-10-14 21:27:00,
2013-10-14 15:32:00,38.1,27.0,29.97,West,278,3.0,4.0,64,0.00,,---,0.11,VWS V14.01,2013-10-14 21:32:00,
2013-10-14 15:37:00,37.9,26.1,29.98,West,281,8.0,11.0,62,0.00,,---,0.11,VWS V14.01,2013-10-14 21:37:00,
2013-10-14 15:42:00,36.5,28.4,30.00,West,269,11.0,12.0,72,0.00,,---,0.11,VWS V14.01,2013-10-14 21:42:00,
2013-10-14 15:47:00,34.3,29.1,30.00,WNW,292,10.0,10.0,81,0.00,,---,0.11,VWS V14.01,2013-10-14 21:47:00,
2013-10-14 15:52:00,33.0,29.3,30.01,WNW,290,3.0,4.0,86,0.00,,---,0.11,VWS V14.01,2013-10-14 21:52:00,
2013-10-14 15:57:00,32.1,28.7,30.01,North,360,9.0,10.0,87,0.00,,---,0.11,VWS V14.01,2013-10-14 21:57:00,
2013-10-14 16:02:00,31.4,28.5,30.01,North,5,3.0,5.0,89,0.00,,---,0.11,VWS V14.01,2013-10-14 22:02:00,
2013-10-14 16:07:00,30.9,28.6,30.01,NNE,13,5.0,7.0,91,0.00,,---,0.11,VWS V14.01,2013-10-14 22:07:00,
2013-10-14 16:12:00,30.6,28.6,30.02,North,5,4.0,7.0,92,0.00,,---,0.11,VWS V14.01,2013-10-14 22:12:00,
2013-10-14 16:17:00,30.9,29.1,30.02,North,11,6.0,7.0,93,0.00,,---,0.11,VWS V14.01,2013-10-14 22:17:00,
2013-10-14 16:22:00,30.9,29.1,30.02,NNE,17,4.0,6.0,93,0.00,,---,0.11,VWS V14.01,2013-10-14 22:22:00,
2013-10-14 16:27:00,31.2,29.1,30.03,NNE,12,7.0,7.0,92,0.00,,---,0.11,VWS V14.01,2013-10-14 22:27:00,
2013-10-14 16:32:00,31.2,29.1,30.03,North,5,4.0,6.0,92,0.00,,---,0.11,VWS V14.01,2013-10-14 22:32:00,
2013-10-14 16:37:00,31.1,29.0,30.04,North,5,4.0,5.0,92,0.00,,---,0.11,VWS V14.01,2013-10-14 22:37:00,
2013-10-14 16:42:00,31.0,29.2,30.04,North,360,3.0,5.0,93,0.00,,---,0.11,VWS V14.01,2013-10-14 22:42:00,
2013-10-14 16:47:00,30.8,29.0,30.04,North,355,3.0,4.0,93,0.00,,---,0.11,VWS V14.01,2013-10-14 22:47:00,
2013-10-14 16:52:00,30.8,29.3,30.04,North,355,2.0,2.0,94,0.00,,---,0.11,VWS V14.01,2013-10-14 22:52:00,
2013-10-14 16:57:00,30.8,29.3,30.05,North,355,0.0,0.0,94,0.00,,---,0.11,VWS V14.01,2013-10-14 22:57:00,
2013-10-14 17:02:00,30.9,29.4,30.05,North,355,1.0,1.0,94,0.00,,---,0.11,VWS V14.01,2013-10-14 23:02:00,
2013-10-14 17:07:00,30.9,29.4,30.05,North,355,0.0,0.0,94,0.00,,---,0.11,VWS V14.01,2013-10-14 23:07:00,
2013-10-14 17:12:00,30.9,29.4,30.05,North,355,0.0,0.0,94,0.00,,---,0.11,VWS V14.01,2013-10-14 23:12:00,
2013-10-14 17:17:00,30.8,29.3,30.06,North,355,0.0,0.0,94,0.00,,---,0.11,VWS V14.01,2013-10-14 23:17:00,
2013-10-14 17:22:00,30.6,29.1,30.06,North,355,0.0,0.0,94,0.00,,---,0.11,VWS V14.01,2013-10-14 23:22:00,
2013-10-14 17:27:00,30.5,28.7,30.06,North,355,1.0,2.0,93,0.00,,---,0.11,VWS V14.01,2013-10-14 23:27:00,
2013-10-14 17:32:00,30.5,29.0,30.07,North,355,1.0,1.0,94,0.00,,---,0.11,VWS V14.01,2013-10-14 23:32:00,
2013-10-14 17:37:00,30.5,29.0,30.07,North,355,2.0,2.0,94,0.00,,---,0.11,VWS V14.01,2013-10-14 23:37:00,
2013-10-14 17:42:00,30.3,28.8,30.07,ESE,117,4.0,4.0,94,0.00,,---,0.11,VWS V14.01,2013-10-14 23:42:00,
2013-10-14 17:47:00,30.2,28.7,30.07,ESE,115,0.0,0.0,94,0.00,,---,0.11,VWS V14.01,2013-10-14 23:47:00,
2013-10-14 17:52:00,30.1,28.6,30.07,ESE,115,4.0,4.0,94,0.00,,---,0.11,VWS V14.01,2013-10-14 23:52:00,
2013-10-14 17:57:00,30.1,28.6,30.08,ESE,115,0.0,3.0,94,0.00,,---,0.11,VWS V14.01,2013-10-14 23:57:00,
2013-10-14 18:03:00,30.1,28.6,30.08,SW,214,6.0,6.0,94,0.00,,---,0.11,VWS V14.01,2013-10-15 00:03:00,
2013-10-14 18:08:00,30.2,28.7,30.08,SW,236,4.0,4.0,94,0.00,,---,0.11,VWS V14.01,2013-10-15 00:08:00,
2013-10-14 18:13:00,30.2,28.7,30.08,WSW,253,5.0,9.0,94,0.00,,---,0.11,VWS V14.01,2013-10-15 00:13:00,
2013-10-14 18:18:00,30.2,28.7,30.08,WSW,238,5.0,6.0,94,0.00,,---,0.11,VWS V14.01,2013-10-15 00:18:00,
2013-10-14 18:23:00,30.1,28.6,30.09,WSW,240,4.0,7.0,94,0.00,,---,0.11,VWS V14.01,2013-10-15 00:23:00,
2013-10-14 18:28:00,30.0,28.5,30.09,SW,229,4.0,5.0,94,0.00,,---,0.11,VWS V14.01,2013-10-15 00:28:00,
2013-10-14 18:33:00,30.0,28.5,30.08,SW,225,2.0,2.0,94,0.00,,---,0.11,VWS V14.01,2013-10-15 00:33:00,
2013-10-14 18:38:00,29.9,28.4,30.09,SW,225,0.0,0.0,94,0.00,,---,0.11,VWS V14.01,2013-10-15 00:38:00,
2013-10-14 18:43:00,29.7,28.2,30.09,SW,228,3.0,4.0,94,0.00,,---,0.11,VWS V14.01,2013-10-15 00:43:00,
2013-10-14 18:48:00,29.4,27.9,30.09,WSW,257,4.0,4.0,94,0.00,,---,0.11,VWS V14.01,2013-10-15 00:48:00,
2013-10-14 18:53:00,29.2,27.7,30.09,WSW,257,1.0,3.0,94,0.00,,---,0.11,VWS V14.01,2013-10-15 00:53:00,
2013-10-14 18:58:00,29.1,27.6,30.09,WSW,257,0.0,0.0,94,0.00,,---,0.11,VWS V14.01,2013-10-15 00:58:00,
2013-10-14 19:03:00,28.9,27.4,30.10,WSW,257,0.0,0.0,94,0.00,,---,0.11,VWS V14.01,2013-10-15 01:03:00,
2013-10-14 19:08:00,28.5,27.0,30.10,WSW,257,3.0,3.0,94,0.00,,---,0.11,VWS V14.01,2013-10-15 01:08:00,
2013-10-14 19:13:00,28.3,26.8,30.11,WSW,257,0.0,0.0,94,0.00,,---,0.11,VWS V14.01,2013-10-15 01:13:00,
2013-10-14 19:18:00,28.3,26.8,30.11,WSW,257,1.0,1.0,94,0.00,,---,0.11,VWS V14.01,2013-10-15 01:18:00,
2013-10-14 19:23:00,28.3,26.8,30.11,WSW,257,2.0,2.0,94,0.00,,---,0.11,VWS V14.01,2013-10-15 01:23:00,
2013-10-14 19:28:00,28.4,26.9,30.12,WSW,257,2.0,2.0,94,0.00,,---,0.11,VWS V14.01,2013-10-15 01:28:00,
2013-10-14 19:33:00,28.5,27.0,30.12,WSW,257,4.0,5.0,94,0.00,,---,0.11,VWS V14.01,2013-10-15 01:33:00,
2013-10-14 19:38:00,28.6,27.1,30.12,WSW,257,2.0,3.0,94,0.00,,---,0.11,VWS V14.01,2013-10-15 01:38:00,
2013-10-14 19:43:00,28.6,27.1,30.12,WSW,257,5.0,5.0,94,0.00,,---,0.11,VWS V14.01,2013-10-15 01:43:00,
2013-10-14 19:48:00,28.5,27.0,30.12,WSW,257,3.0,3.0,94,0.00,,---,0.11,VWS V14.01,2013-10-15 01:48:00,
2013-10-14 19:53:00,28.5,27.0,30.13,WSW,257,3.0,3.0,94,0.00,,---,0.11,VWS V14.01,2013-10-15 01:53:00,
2013-10-14 19:58:00,28.5,27.0,30.13,WSW,257,0.0,0.0,94,0.00,,---,0.11,VWS V14.01,2013-10-15 01:58:00,
2013-10-14 20:03:00,28.5,27.0,30.14,WSW,257,0.0,0.0,94,0.00,,---,0.11,VWS V14.01,2013-10-15 02:03:00,
2013-10-14 20:08:00,28.4,26.9,30.14,WSW,257,0.0,0.0,94,0.00,,---,0.11,VWS V14.01,2013-10-15 02:08:00,
2013-10-14 20:13:00,28.3,26.8,30.14,WSW,258,2.0,4.0,94,0.00,,---,0.11,VWS V14.01,2013-10-15 02:13:00,
2013-10-14 20:18:00,28.1,26.6,30.14,WSW,258,2.0,2.0,94,0.00,,---,0.11,VWS V14.01,2013-10-15 02:18:00,
2013-10-14 20:23:00,28.0,26.5,30.14,WSW,258,1.0,1.0,94,0.00,,---,0.11,VWS V14.01,2013-10-15 02:23:00,
2013-10-14 20:28:00,27.8,26.3,30.14,West,259,5.0,5.0,94,0.00,,---,0.11,VWS V14.01,2013-10-15 02:28:00,
2013-10-14 20:33:00,27.7,26.2,30.15,West,267,5.0,5.0,94,0.00,,---,0.11,VWS V14.01,2013-10-15 02:33:00,
2013-10-14 20:38:00,27.7,26.2,30.15,West,267,4.0,4.0,94,0.00,,---,0.11,VWS V14.01,2013-10-15 02:38:00,
2013-10-14 20:43:00,27.6,26.1,30.15,West,267,0.0,0.0,94,0.00,,---,0.11,VWS V14.01,2013-10-15 02:43:00,
2013-10-14 20:48:00,27.5,26.0,30.16,West,268,4.0,5.0,94,0.00,,---,0.11,VWS V14.01,2013-10-15 02:48:00,
2013-10-14 20:53:00,27.4,25.6,30.16,West,268,4.0,4.0,93,0.00,,---,0.11,VWS V14.01,2013-10-15 02:53:00,
2013-10-14 20:58:00,27.2,25.5,30.17,West,269,5.0,5.0,93,0.00,,---,0.11,VWS V14.01,2013-10-15 02:58:00,
2013-10-14 21:03:00,27.1,25.4,30.17,West,269,5.0,5.0,93,0.00,,---,0.11,VWS V14.01,2013-10-15 03:03:00,
2013-10-14 21:08:00,26.9,25.1,30.17,West,269,4.0,5.0,93,0.00,,---,0.11,VWS V14.01,2013-10-15 03:08:00,
2013-10-14 21:13:00,26.8,25.0,30.17,West,269,3.0,5.0,93,0.00,,---,0.11,VWS V14.01,2013-10-15 03:13:00,
2013-10-14 21:18:00,26.9,25.1,30.17,West,269,4.0,5.0,93,0.00,,---,0.11,VWS V14.01,2013-10-15 03:18:00,
2013-10-14 21:24:00,26.9,25.4,30.17,West,269,3.0,3.0,94,0.00,,---,0.11,VWS V14.01,2013-10-15 03:24:00,
2013-10-14 21:29:00,26.9,25.4,30.17,West,269,0.0,0.0,94,0.00,,---,0.11,VWS V14.01,2013-10-15 03:29:00,
2013-10-14 21:34:00,27.0,25.5,30.17,West,269,0.0,0.0,94,0.00,,---,0.11,VWS V14.01,2013-10-15 03:34:00,
2013-10-14 21:39:00,27.1,25.6,30.17,West,269,2.0,2.0,94,0.00,,---,0.11,VWS V14.01,2013-10-15 03:39:00,
2013-10-14 21:44:00,27.2,25.7,30.17,West,269,5.0,6.0,94,0.00,,---,0.11,VWS V14.01,2013-10-15 03:44:00,
2013-10-14 21:49:00,27.2,25.7,30.17,NNW,333,6.0,8.0,94,0.00,,---,0.11,VWS V14.01,2013-10-15 03:49:00,
2013-10-14 21:54:00,27.0,25.5,30.18,NNW,334,0.0,0.0,94,0.00,,---,0.11,VWS V14.01,2013-10-15 03:54:00,
2013-10-14 21:59:00,26.9,25.1,30.18,NNW,334,3.0,3.0,93,0.00,,---,0.11,VWS V14.01,2013-10-15 03:59:00,
2013-10-14 22:01:00,26.8,25.0,30.18,NNW,334,4.0,4.0,93,0.00,,---,0.11,VWS V14.01,2013-10-15 04:01:00,
2013-10-14 22:02:00,26.7,25.0,30.18,NNW,333,4.0,4.0,93,0.00,,---,0.11,VWS V14.01,2013-10-15 04:02:00,
2013-10-14 22:07:00,26.6,24.9,30.18,NNW,333,4.0,5.0,93,0.00,,---,0.11,VWS V14.01,2013-10-15 04:07:00,
2013-10-14 22:12:00,26.4,24.6,30.18,North,11,7.0,7.0,93,0.00,,---,0.11,VWS V14.01,2013-10-15 04:12:00,
2013-10-14 22:17:00,26.3,24.6,30.19,NNE,13,0.0,0.0,93,0.00,,---,0.11,VWS V14.01,2013-10-15 04:17:00,
2013-10-14 22:22:00,26.1,24.4,30.19,NNE,13,0.0,0.0,93,0.00,,---,0.11,VWS V14.01,2013-10-15 04:22:00,
2013-10-14 22:27:00,26.0,24.3,30.19,NNE,13,0.0,0.0,93,0.00,,---,0.11,VWS V14.01,2013-10-15 04:27:00,
2013-10-14 22:32:00,25.8,24.1,30.19,NNE,13,2.0,2.0,93,0.00,,---,0.11,VWS V14.01,2013-10-15 04:32:00,
2013-10-14 22:37:00,25.8,24.1,30.19,NNE,13,3.0,3.0,93,0.00,,---,0.11,VWS V14.01,2013-10-15 04:37:00,
2013-10-14 22:42:00,25.8,24.3,30.19,NNE,13,2.0,3.0,94,0.00,,---,0.11,VWS V14.01,2013-10-15 04:42:00,
2013-10-14 22:47:00,25.8,24.3,30.19,NNE,13,5.0,5.0,94,0.00,,---,0.11,VWS V14.01,2013-10-15 04:47:00,
2013-10-14 22:52:00,25.6,23.9,30.19,NNE,12,4.0,5.0,93,0.00,,---,0.11,VWS V14.01,2013-10-15 04:52:00,
2013-10-14 22:57:00,25.4,23.7,30.19,NNE,12,0.0,1.0,93,0.00,,---,0.11,VWS V14.01,2013-10-15 04:57:00,
2013-10-14 23:02:00,25.4,23.7,30.20,NNE,12,0.0,0.0,93,0.00,,---,0.11,VWS V14.01,2013-10-15 05:02:00,
2013-10-14 23:07:00,25.3,23.6,30.20,NNE,12,5.0,5.0,93,0.00,,---,0.11,VWS V14.01,2013-10-15 05:07:00,
2013-10-14 23:12:00,25.1,23.4,30.20,NNE,12,5.0,5.0,93,0.00,,---,0.11,VWS V14.01,2013-10-15 05:12:00,
2013-10-14 23:17:00,24.8,23.1,30.20,North,11,6.0,7.0,93,0.00,,---,0.11,VWS V14.01,2013-10-15 05:17:00,
2013-10-14 23:22:00,24.7,23.0,30.20,North,11,4.0,5.0,93,0.00,,---,0.11,VWS V14.01,2013-10-15 05:22:00,
2013-10-14 23:27:00,24.5,22.8,30.20,North,11,0.0,0.0,93,0.00,,---,0.11,VWS V14.01,2013-10-15 05:27:00,
2013-10-14 23:32:00,24.5,22.8,30.20,North,11,2.0,3.0,93,0.00,,---,0.11,VWS V14.01,2013-10-15 05:32:00,
2013-10-14 23:37:00,24.7,23.0,30.20,North,11,3.0,3.0,93,0.00,,---,0.11,VWS V14.01,2013-10-15 05:37:00,
2013-10-14 23:42:00,24.9,23.4,30.21,North,11,2.0,2.0,94,0.00,,---,0.11,VWS V14.01,2013-10-15 05:42:00,
2013-10-14 23:47:00,25.1,23.6,30.20,North,11,0.0,0.0,94,0.00,,---,0.11,VWS V14.01,2013-10-15 05:47:00,
2013-10-14 23:52:00,25.2,23.7,30.20,North,11,0.0,0.0,94,0.00,,---,0.11,VWS V14.01,2013-10-15 05:52:00,
2013-10-14 23:57:00,25.1,23.6,30.20,North,11,1.0,1.0,94,0.00,,---,0.11,VWS V14.01,2013-10-15 05:57:00,